Showing default

DIAPASON (D1-A), 2016

Orbit data source: Space-Track

DIAPASON (D1-A), 2016 is a payload satellite owned by CNES (FR) in LEO that was launched on Thu, 17 Feb 1966 UTC via a DIAMANT A launch vehicle from the Hamma Guira Space Track Range (HGSTR). Payload-class satellites include a variety of spacecraft equipped with specific instruments for various scientific and technological missions. These include communications satellites like Starlink; space stations such as the ISS; scientific satellites like the Hubble; Earth observation satellites from companies like Planet Labs, Umbra, and HawkEye 360; GPS; miniature CubeSats for education and research; and military/defense satellites.

Loading next visibility...
Identifier
2016, 1966-013A
Orbit
LEO
Country
Flag of FRFR
Related business
Manufacturer
CNES
Mission
Civil Geodetic
Bus & Motor
D-1, Unknown motor
Mass
19 kg wet, 19 kg dry
Launch date (UTC)
1966-02-17 (60 years ago)
Launch vehicle
DIAMANT A
Launch site
Hamma Guira Space Track Range (HGSTR)
Object type
Payload
Rocket body
Debris
Shape & HBR
Cyl + 4 Pan + 4 Rod, 0.8 m
Radar Cross Section
0.455 m², Large (>1 m²)

Expand to show TLE details & history
Last TLE update: 8 hours ago

TLE from 8 hours ago
0 DIAPASON (D1-A)
1 02016U 66013A   25245.93313308  .00004211  00000-0  12189-2 0  9994
2 02016  34.0867 105.6454 1160693  48.4088 321.0342 12.65494526704024
Epoch: 2025-09-02T22:23Z
TLE epoch observation values (Epoch: 2025-09-02T22:23:42.698Z)
Latitude
-0°
Longitude
147.40022°
Altitude
744.975 km
Speed
7.792 km/s
True Right ascension
07h 02m 34s
True Declination
0° 00' 00"
Sunlit
Object was in daylight at epoch
Visualization orbit readout
Latitude
Unknown
Longitude
Unknown
Altitude
Unknown
Speed
Unknown
Apparent Right ascension
Unknown
Apparent Declination
Unknown
Sunlit
N/A
Visualization observer readout
Local Sidereal Time
21:45:30
Azimuth
Unknown
Elevation
Unknown
Doppler factor
Unknown
Orbital elements
Apogee altitude
2,306.608 km
Perigee altitude
500.21 km
Semi-major axis
7,781.546 km
Eccentricity
0.11607
Inclination
34.0867°
RAAN
105.6454°
Arg. of periapsis
48.4088°
True anomaly
311.65538°
Mean anomaly
321.0342°
Eccentric anomaly
316.45245°
Mean motion
3.16187 °/min
Orbital period
113.86 mins
BSTAR
0.0012189
Loading maneuver chart data...
Computing Atmospheric mass density...

Documentation

Showing up to 5 results
|